Terminal Aerodrome Forecast
Issued by NWS St Louis, MO

Home | Current Version | Previous Version | Text Only | Print | Product List | Glossary On
Versions: 1 2 3 4 5 6 7 8 9 10 11 12 13 14 15 16 17 18 19 20 21 22 23 24 25 26 27 28 29 30 31
000
FTUS43 KLSX 262100 AAC
TAFSTL
TAF AMD
KSTL 262155Z 2622/2724 19007KT P6SM BKN035
     FM270000 VRB04KT P6SM SCT030
     FM270400 31010KT P6SM BKN025
     FM271800 35008KT P6SM BKN030=

USA.gov is the U.S. government's official web portal to all federal, state and local government web resources and services.